| time (UTC) | temp F | wind direction | speed knots | gust knots | rain 1hr in | rain 24hr in | rain mn in | humidity % | barometer mb |
| 20260505053052 | 90 | 251 | 0.9 | 0.0 | 0.00 | 0.00 | 0.00 | 41 | |
| 20260505052543 | 90 | 307 | 1.7 | 0.0 | 0.00 | 0.00 | 0.00 | 41 | |
| 20260505052034 | 90 | 282 | 4.3 | 0.0 | 0.00 | 0.00 | 0.00 | 41 | |
| 20260505051526 | 90 | 317 | 4.3 | 0.0 | 0.00 | 0.00 | 0.00 | 41 | |
| 20260505051018 | 90 | 286 | 3.5 | 0.0 | 0.00 | 0.00 | 0.00 | 42 | |
| 20260505050509 | 90 | 323 | 2.6 | 0.0 | 0.00 | 0.00 | 0.00 | 43 | |
| 20260505041340 | 90 | 244 | 2.6 | 0.0 | 0.00 | 0.00 | 0.00 | 45 | |
| 20260505040832 | 90 | 303 | 3.5 | 0.0 | 0.00 | 0.00 | 0.00 | 45 | |
| 20260505040324 | 90 | 288 | 3.5 | 0.0 | 0.00 | 0.00 | 0.00 | 45 | |
| 20260505035815 | 90 | 278 | 4.3 | 0.0 | 0.00 | 0.00 | 0.00 | 45 | |
| 20260505035307 | 90 | 280 | 3.5 | 0.0 | 0.00 | 0.00 | 0.00 | 45 | |
| 20260505034758 | 90 | 276 | 4.3 | 0.0 | 0.00 | 0.00 | 0.00 | 46 | |
| 20260505034250 | 90 | 285 | 4.3 | 0.0 | 0.00 | 0.00 | 0.00 | 46 | |
| 20260505033741 | 90 | 267 | 3.5 | 0.0 | 0.00 | 0.00 | 0.00 | 46 | |
| 20260505033233 | 90 | 275 | 4.3 | 0.0 | 0.00 | 0.00 | 0.00 | 45 | |
| 20260505032725 | 90 | 253 | 3.5 | 0.0 | 0.00 | 0.00 | 0.00 | 45 | |
| 20260505032216 | 90 | 317 | 3.5 | 0.0 | 0.00 | 0.00 | 0.00 | 46 | |
| 20260505031708 | 89 | 301 | 3.5 | 0.0 | 0.00 | 0.00 | 0.00 | 46 | |
| 20260505031159 | 89 | 314 | 3.5 | 0.0 | 0.00 | 0.00 | 0.00 | 46 | |
| 20260505030650 | 89 | 271 | 5.2 | 0.0 | 0.00 | 0.00 | 0.00 | 46 | |
| 20260505030142 | 89 | 271 | 1.7 | 0.0 | 0.00 | 0.00 | 0.00 | 46 | |
| 20260505025633 | 89 | 272 | 4.3 | 0.0 | 0.00 | 0.00 | 0.00 | 46 | |
| 20260505025125 | 89 | 275 | 4.3 | 0.0 | 0.00 | 0.00 | 0.00 | 47 | |
| 20260505024616 | 89 | 288 | 6.1 | 0.0 | 0.00 | 0.00 | 0.00 | 47 | |
| 20260505024107 | 89 | 286 | 3.5 | 0.0 | 0.00 | 0.00 | 0.00 | 47 | |
| 20260505023559 | 89 | 281 | 5.2 | 0.0 | 0.00 | 0.00 | 0.00 | 47 | |
| 20260505023051 | 89 | 284 | 5.2 | 0.0 | 0.00 | 0.00 | 0.00 | 47 | |
| 20260505022542 | 89 | 267 | 4.3 | 0.0 | 0.00 | 0.00 | 0.00 | 49 | |
| 20260505022034 | 89 | 281 | 1.7 | 0.0 | 0.00 | 0.00 | 0.00 | 48 | |
| 20260505021525 | 89 | 318 | 3.5 | 0.0 | 0.00 | 0.00 | 0.00 | 48 | |
| 20260505021016 | 89 | 347 | 1.7 | 0.0 | 0.00 | 0.00 | 0.00 | 50 | |
| 20260505020508 | 89 | 273 | 2.6 | 0.0 | 0.00 | 0.00 | 0.00 | 50 | |
| 20260505015959 | 88 | 302 | 3.5 | 0.0 | 0.00 | 0.00 | 0.00 | 51 | |
| 20260505015451 | 88 | 288 | 2.6 | 0.0 | 0.00 | 0.00 | 0.00 | 48 | |
| 20260505013152 | 89 | 279 | 3.5 | 0.0 | 0.00 | 0.00 | 0.00 | 48 | |
| 20260505012644 | 89 | 281 | 3.5 | 0.0 | 0.00 | 0.00 | 0.00 | 49 | |
| 20260505012135 | 88 | 277 | 3.5 | 0.0 | 0.00 | 0.00 | 0.00 | 46 | |
| 20260505011626 | 88 | 304 | 2.6 | 0.0 | 0.00 | 0.00 | 0.00 | 46 | |
| 20260505011117 | 88 | 278 | 3.5 | 0.0 | 0.00 | 0.00 | 0.00 | 45 | |
| 20260505010609 | 88 | 272 | 3.5 | 0.0 | 0.00 | 0.00 | 0.00 | 45 | |
| 20260505010101 | 88 | 267 | 3.5 | 0.0 | 0.00 | 0.00 | 0.00 | 45 | |
| 20260505005552 | 88 | 268 | 3.5 | 0.0 | 0.00 | 0.00 | 0.00 | 45 | |
| 20260505005043 | 88 | 322 | 2.6 | 0.0 | 0.00 | 0.00 | 0.00 | 45 | |
| 20260505004535 | 89 | 302 | 3.5 | 0.0 | 0.00 | 0.00 | 0.00 | 45 | |
| 20260505004026 | 89 | 285 | 2.6 | 0.0 | 0.00 | 0.00 | 0.00 | 45 | |
| 20260505003517 | 89 | 325 | 1.7 | 0.0 | 0.00 | 0.00 | 0.00 | 45 | |
| 20260505003008 | 89 | 283 | 1.7 | 0.0 | 0.00 | 0.00 | 0.00 | 45 | |
| 20260505002500 | 89 | 284 | 2.6 | 0.0 | 0.00 | 0.00 | 0.00 | 45 | |
| 20260505001951 | 89 | 275 | 3.5 | 0.0 | 0.00 | 0.00 | 0.00 | 45 | |
| 20260505001443 | 89 | 287 | 2.6 | 0.0 | 0.00 | 0.00 | 0.00 | 44 | |
| 20260505000935 | 89 | 280 | 3.5 | 0.0 | 0.00 | 0.00 | 0.00 | 44 | |
| 20260505000428 | 89 | 274 | 2.6 | 0.0 | 0.00 | 0.00 | 0.00 | 45 | |
| 20260504235918 | 89 | 266 | 4.3 | 0.0 | 0.00 | 0.00 | 0.00 | 45 | |
| 20260504235410 | 89 | 267 | 2.6 | 0.0 | 0.00 | 0.00 | 0.00 | 44 | |
| 20260504234901 | 89 | 319 | 1.7 | 0.0 | 0.00 | 0.00 | 0.00 | 44 | |
| 20260504234353 | 89 | 318 | 1.7 | 0.0 | 0.00 | 0.00 | 0.00 | 44 | |
| 20260504233844 | 89 | 317 | 2.6 | 0.0 | 0.00 | 0.00 | 0.00 | 44 | |
| 20260504233336 | 89 | 311 | 2.6 | 0.0 | 0.00 | 0.00 | 0.00 | 44 | |
| 20260504232827 | 89 | 262 | 2.6 | 0.0 | 0.00 | 0.00 | 0.00 | 44 | |
| 20260504232318 | 89 | 267 | 5.2 | 0.0 | 0.00 | 0.00 | 0.00 | 44 | |
| 20260504231810 | 89 | 273 | 2.6 | 0.0 | 0.00 | 0.00 | 0.00 | 44 | |
| 20260504231301 | 89 | 284 | 2.6 | 0.0 | 0.00 | 0.00 | 0.00 | 44 | |
| 20260504230753 | 89 | 267 | 3.5 | 0.0 | 0.00 | 0.00 | 0.00 | 44 | |
| 20260504230244 | 89 | 268 | 2.6 | 0.0 | 0.00 | 0.00 | 0.00 | 44 | |
| 20260504225736 | 89 | 278 | 1.7 | 0.0 | 0.00 | 0.00 | 0.00 | 44 | |
| 20260504225227 | 89 | 270 | 2.6 | 0.0 | 0.00 | 0.00 | 0.00 | 44 | |
| 20260504224718 | 89 | 288 | 3.5 | 0.0 | 0.00 | 0.00 | 0.00 | 44 | |
| 20260504224210 | 89 | 274 | 2.6 | 0.0 | 0.00 | 0.00 | 0.00 | 44 | |
| 20260504223701 | 89 | 276 | 3.5 | 0.0 | 0.00 | 0.00 | 0.00 | 44 | |
| 20260504223153 | 89 | 279 | 3.5 | 0.0 | 0.00 | 0.00 | 0.00 | 44 | |
| 20260504222644 | 89 | 287 | 2.6 | 0.0 | 0.00 | 0.00 | 0.00 | 44 | |
| 20260504222135 | 89 | 271 | 2.6 | 0.0 | 0.00 | 0.00 | 0.00 | 44 | |
| 20260504221627 | 89 | 300 | 1.7 | 0.0 | 0.00 | 0.00 | 0.00 | 44 | |
| 20260504221118 | 89 | 269 | 2.6 | 0.0 | 0.00 | 0.00 | 0.00 | 44 | |
| 20260504220610 | 89 | 329 | 2.6 | 0.0 | 0.00 | 0.00 | 0.00 | 44 | |
| 20260504220101 | 89 | 280 | 1.7 | 0.0 | 0.00 | 0.00 | 0.00 | 44 | |
| 20260504215552 | 89 | 279 | 2.6 | 0.0 | 0.00 | 0.00 | 0.00 | 44 | |
| 20260504215044 | 89 | 326 | 1.7 | 0.0 | 0.00 | 0.00 | 0.00 | 44 | |
| 20260504214535 | 89 | 293 | 1.7 | 0.0 | 0.00 | 0.00 | 0.00 | 44 | |
| 20260504214027 | 89 | 340 | 0.9 | 0.0 | 0.00 | 0.00 | 0.00 | 44 | |
| 20260504213518 | 89 | 307 | 1.7 | 0.0 | 0.00 | 0.00 | 0.00 | 44 | |
| 20260504213010 | 89 | 264 | 1.7 | 0.0 | 0.00 | 0.00 | 0.00 | 44 | |
| 20260504212501 | 89 | 340 | 2.6 | 0.0 | 0.00 | 0.00 | 0.00 | 44 | |
| 20260504211953 | 89 | 308 | 1.7 | 0.0 | 0.00 | 0.00 | 0.00 | 44 | |
| 20260504211444 | 89 | 298 | 2.6 | 0.0 | 0.00 | 0.00 | 0.00 | 44 | |
| 20260504210935 | 89 | 340 | 2.6 | 0.0 | 0.00 | 0.00 | 0.00 | 44 | |
| 20260504210427 | 89 | 254 | 1.7 | 0.0 | 0.00 | 0.00 | 0.00 | 44 | |
| 20260504205919 | 89 | 287 | 1.7 | 0.0 | 0.00 | 0.00 | 0.00 | 44 | |
| 20260504205410 | 89 | 295 | 1.7 | 0.0 | 0.00 | 0.00 | 0.00 | 44 | |
| 20260504204901 | 89 | 277 | 1.7 | 0.0 | 0.00 | 0.00 | 0.00 | 44 | |
| 20260504204353 | 89 | 314 | 0.9 | 0.0 | 0.00 | 0.00 | 0.00 | 44 | |
| 20260504203845 | 89 | 266 | 1.7 | 0.0 | 0.00 | 0.00 | 0.00 | 44 | |
| 20260504203336 | 90 | 277 | 2.6 | 0.0 | 0.00 | 0.00 | 0.00 | 44 | |
| 20260504202827 | 90 | 313 | 1.7 | 0.0 | 0.00 | 0.00 | 0.00 | 44 | |
| 20260504202319 | 90 | 293 | 1.7 | 0.0 | 0.00 | 0.00 | 0.00 | 44 | |
| 20260504201810 | 90 | 277 | 2.6 | 0.0 | 0.00 | 0.00 | 0.00 | 44 | |
| 20260504201302 | 90 | 325 | 1.7 | 0.0 | 0.00 | 0.00 | 0.00 | 44 | |
| 20260504200753 | 90 | 271 | 1.7 | 0.0 | 0.00 | 0.00 | 0.00 | 44 | |
| 20260504200244 | 90 | 288 | 2.6 | 0.0 | 0.00 | 0.00 | 0.00 | 44 | |
| 20260504195736 | 90 | 284 | 2.6 | 0.0 | 0.00 | 0.00 | 0.00 | 44 | |
| 20260504195228 | 90 | 276 | 2.6 | 0.0 | 0.00 | 0.00 | 0.00 | 44 | |
| 20260504194719 | 90 | 270 | 2.6 | 0.0 | 0.00 | 0.00 | 0.00 | 44 | |
| 20260504194210 | 90 | 273 | 3.5 | 0.0 | 0.00 | 0.00 | 0.00 | 44 | |
| 20260504193701 | 90 | 289 | 2.6 | 0.0 | 0.00 | 0.00 | 0.00 | 44 | |
| 20260504193150 | 90 | 264 | 3.5 | 0.0 | 0.00 | 0.00 | 0.00 | 44 | |
| 20260504192641 | 90 | 284 | 3.5 | 0.0 | 0.00 | 0.00 | 0.00 | 44 | |
| 20260504192132 | 90 | 286 | 2.6 | 0.0 | 0.00 | 0.00 | 0.00 | 44 | |
| 20260504191624 | 90 | 297 | 2.6 | 0.0 | 0.00 | 0.00 | 0.00 | 44 | |
| 20260504191115 | 90 | 276 | 2.6 | 0.0 | 0.00 | 0.00 | 0.00 | 44 | |
| 20260504190607 | 90 | 269 | 3.5 | 0.0 | 0.00 | 0.00 | 0.00 | 44 | |
| 20260504190059 | 90 | 281 | 4.3 | 0.0 | 0.00 | 0.00 | 0.00 | 44 | |
| 20260504185550 | 91 | 280 | 2.6 | 0.0 | 0.00 | 0.00 | 0.00 | 43 | |
| 20260504185042 | 91 | 271 | 4.3 | 0.0 | 0.00 | 0.00 | 0.00 | 43 | |
| 20260504184533 | 91 | 312 | 2.6 | 0.0 | 0.00 | 0.00 | 0.00 | 43 | |
| 20260504184024 | 91 | 299 | 3.5 | 0.0 | 0.00 | 0.00 | 0.00 | 43 | |
| 20260504183515 | 91 | 276 | 2.6 | 0.0 | 0.00 | 0.00 | 0.17 | 43 | |
| 20260504183007 | 91 | 322 | 2.6 | 0.0 | 0.00 | 0.00 | 0.17 | 43 | |
| 20260504182458 | 91 | 305 | 2.6 | 0.0 | 0.00 | 0.00 | 0.17 | 44 | |
| 20260504181946 | 91 | 320 | 2.6 | 0.0 | 0.00 | 0.00 | 0.17 | 43 | |
| 20260504181438 | 91 | 269 | 2.6 | 0.0 | 0.00 | 0.00 | 0.17 | 42 | |
| 20260504180929 | 91 | 289 | 2.6 | 0.0 | 0.00 | 0.00 | 0.17 | 43 | |
| 20260504174435 | 92 | 316 | 0.9 | 0.0 | 0.00 | 0.00 | 0.17 | 41 | |
| 20260504173314 | 92 | 316 | 0.9 | 0.0 | 0.00 | 0.00 | 0.17 | 41 | |
| 20260504172805 | 92 | 287 | 2.6 | 0.0 | 0.00 | 0.00 | 0.17 | 41 | |
| 20260504172252 | 92 | 287 | 2.6 | 0.0 | 0.00 | 0.00 | 0.17 | 41 | |
| 20260504171740 | 92 | 266 | 3.5 | 0.0 | 0.00 | 0.00 | 0.17 | 41 | |
| 20260504171227 | 92 | 266 | 3.5 | 0.0 | 0.00 | 0.00 | 0.17 | 41 | |
| 20260504170719 | 92 | 265 | 2.6 | 0.0 | 0.00 | 0.00 | 0.17 | 41 | |
| 20260504170210 | 92 | 276 | 1.7 | 0.0 | 0.00 | 0.00 | 0.17 | 41 | |
| 20260504081918 | 214 | 280 | 4.3 | 0.0 | 0.00 | 0.00 | 0.17 | 21 | |
| 20260504081410 | 214 | 274 | 5.2 | 0.0 | 0.00 | 0.00 | 0.17 | 21 | |
| 20260504080901 | 214 | 317 | 6.1 | 0.0 | 0.00 | 0.00 | 0.17 | 21 | |
| 20260504080353 | 214 | 300 | 3.5 | 0.0 | 0.00 | 0.00 | 0.17 | 21 | |
| 20260504070212 | 214 | 272 | 5.2 | 0.0 | 0.00 | 0.00 | 0.17 | 21 |